Weather History for Williston, ND

Change the Weather History Date:

Monday, May 27, 2013

  Actual Average Record
Temperature  
Mean Temperature 61 °F 58 °F  
Max Temperature 67 °F 71 °F 101 °F (1900)
Min Temperature 54 °F 44 °F 28 °F (1947)
Degree Days  
Heating Degree Days 4 8  
Month to date heating degree days 311 319  
Since 1 July heating degree days 9256 8844  
Cooling Degree Days 0 1  
Month to date cooling degree days 8 3  
Year to date cooling degree days 8 4  
Growing Degree Days 10 (Base 50)    
Moisture  
Dew Point 57 °F    
Average Humidity 87    
Maximum Humidity 100    
Minimum Humidity 73    
Precipitation  
Precipitation 1.02 in 0.07 in 1.04 in (2012)
Month to date precipitation 2.54 1.61  
Year to date precipitation 5.36 4.30  
Snow  
Snow 0.00 in 0.00 in 0.20 in (1959)
Month to date snowfall 0.0 1.3  
Since 1 July snowfall 58.1 45.3  
Snow Depth 0.00 in    
Sea Level Pressure  
Sea Level Pressure 29.77 in    
Wind  
Wind Speed 7 mph (SE)    
Max Wind Speed 30 mph    
Max Gust Speed 35 mph    
Visibility 8 miles    
Events Rain , Thunderstorm    
T = Trace of Precipitation, MM = Missing Value Source: NWS Daily Summary

Daily Weather History Graph

Daily Weather History Graph

Search for Another Location

Airport:

Trip Planner

Search our weather history database for the weather conditions in past years. The results will help you decide how hot, cold, wet, or windy it might be!

Date:

Astronomy

May. 27, 2013 Rise Set
Actual Time 6:02 AM CDT 9:42 PM CDT
Civil Twilight 5:22 AM CDT 10:21 PM CDT
Nautical Twilight 4:29 AM CDT 11:14 PM CDT
Astronomical Twilight 3:15 AM CDT 12:30 AM CDT
Moon No Moon Rise 8:45 AM CDT (5/27)
Length of Visible Light 16h 58m
Length of Day
15h 40m
Waning Gibbous, 91% of the Moon is Illuminated
May 27
Waning Gibbous
May 31
Last Quarter
Jun 8
New
Jun 16
First Quarter
Jun 23
Full

Hourly Weather History & Observations

Time (CDT) Temp. Dew Point Humidity Pressure Visibility Wind Dir Wind Speed Gust Speed Precip Events Conditions
12:52 AM 60.1 °F 57.0 °F 90% 29.85 in 10.0 mi ESE 8.1 mph - N/A   Clear
1:50 AM 60.8 °F 57.2 °F 88% 29.84 in 10.0 mi ESE 6.9 mph - N/A   Mostly Cloudy
1:52 AM 60.1 °F 57.9 °F 93% 29.83 in 10.0 mi ESE 5.8 mph - N/A   Mostly Cloudy
2:35 AM 60.8 °F 59.0 °F 94% 29.80 in 10.0 mi ENE 8.1 mph - N/A   Mostly Cloudy
2:52 AM 61.0 °F 59.0 °F 93% 29.79 in 10.0 mi ESE 5.8 mph - 0.00 in Rain Light Rain
3:24 AM 60.8 °F 59.0 °F 94% 29.83 in 7.0 mi SE 9.2 mph - 0.06 in Rain Rain
3:29 AM 60.8 °F 59.0 °F 94% 29.84 in 1.8 mi Variable 5.8 mph - 0.11 in Rain Heavy Rain
3:32 AM 60.8 °F 59.0 °F 94% 29.82 in 1.0 mi East 11.5 mph 17.3 mph 0.18 in Rain , Thunderstorm Heavy Rain
3:40 AM 59.0 °F 57.2 °F 94% 29.80 in 2.0 mi East 13.8 mph - 0.50 in Rain , Thunderstorm Heavy Rain
3:43 AM 60.8 °F 59.0 °F 94% 29.80 in 4.0 mi East 15.0 mph - 0.52 in Rain , Thunderstorm Rain
3:48 AM 60.8 °F 59.0 °F 94% 29.80 in 5.0 mi East 11.5 mph - 0.52 in Rain , Thunderstorm Rain
3:52 AM 60.1 °F 59.0 °F 96% 29.78 in 7.0 mi ENE 12.7 mph - 0.53 in Rain , Thunderstorm Light Rain
4:03 AM 60.8 °F 59.0 °F 94% 29.80 in 5.0 mi East 6.9 mph - 0.01 in Rain Heavy Rain
4:10 AM 59.0 °F 59.0 °F 100% 29.80 in 2.0 mi ENE 9.2 mph - 0.18 in Rain Heavy Rain
4:12 AM 59.0 °F 59.0 °F 100% 29.80 in 2.5 mi ENE 9.2 mph - 0.19 in Rain , Thunderstorm Rain
4:18 AM 59.0 °F 59.0 °F 100% 29.80 in 5.0 mi ENE 11.5 mph - 0.20 in Rain , Thunderstorm Light Rain
4:30 AM 59.0 °F 59.0 °F 100% 29.78 in 9.0 mi East 13.8 mph - 0.20 in Rain Light Rain
4:40 AM 59.0 °F 57.2 °F 94% 29.76 in 10.0 mi ENE 16.1 mph - 0.20 in   Mostly Cloudy
4:52 AM 59.0 °F 57.9 °F 96% 29.76 in 10.0 mi ENE 9.2 mph 19.6 mph 0.20 in   Mostly Cloudy
5:07 AM 59.0 °F 57.2 °F 94% 29.78 in 10.0 mi NE 5.8 mph - N/A   Mostly Cloudy
5:52 AM 57.0 °F 55.9 °F 96% 29.78 in 10.0 mi SSE 5.8 mph - N/A   Overcast
6:06 AM 55.4 °F 55.4 °F 100% 29.77 in 10.0 mi SE 6.9 mph - N/A   Overcast
6:12 AM 55.4 °F 55.4 °F 100% 29.76 in 10.0 mi SE 8.1 mph - N/A   Overcast
6:29 AM 55.4 °F 55.4 °F 100% 29.75 in 10.0 mi SE 9.2 mph - N/A   Mostly Cloudy
6:37 AM 55.4 °F 55.4 °F 100% 29.75 in 10.0 mi SSE 6.9 mph - N/A   Mostly Cloudy
6:46 AM 55.4 °F 55.4 °F 100% 29.75 in 10.0 mi SE 5.8 mph - N/A   Overcast
6:52 AM 55.9 °F 55.0 °F 97% 29.75 in 10.0 mi SE 3.5 mph - N/A   Overcast
7:52 AM 57.0 °F 55.0 °F 93% 29.76 in 10.0 mi South 12.7 mph - N/A   Mostly Cloudy
8:20 AM 57.2 °F 55.4 °F 94% 29.77 in 10.0 mi SSW 12.7 mph - N/A   Mostly Cloudy
8:52 AM 57.9 °F 55.9 °F 93% 29.77 in 10.0 mi SSW 10.4 mph 21.9 mph N/A   Overcast
9:52 AM 59.0 °F 55.9 °F 90% 29.78 in 10.0 mi SSW 13.8 mph 20.7 mph N/A   Mostly Cloudy
9:57 AM 60.8 °F 55.4 °F 82% 29.78 in 10.0 mi SSW 15.0 mph 20.7 mph N/A   Scattered Clouds
10:19 AM 60.8 °F 57.2 °F 88% 29.78 in 10.0 mi SW 10.4 mph - N/A   Mostly Cloudy
10:37 AM 60.8 °F 55.4 °F 82% 29.79 in 10.0 mi WSW 13.8 mph - N/A   Mostly Cloudy
10:52 AM 62.1 °F 55.9 °F 80% 29.78 in 10.0 mi WSW 10.4 mph - N/A   Mostly Cloudy
11:45 AM 64.4 °F 57.2 °F 77% 29.78 in 10.0 mi SSW 9.2 mph - N/A   Scattered Clouds
11:52 AM 64.0 °F 57.0 °F 78% 29.78 in 10.0 mi SW 8.1 mph - N/A   Partly Cloudy
12:52 PM 66.0 °F 57.9 °F 75% 29.75 in 10.0 mi SW 6.9 mph - N/A   Scattered Clouds
1:08 PM 64.4 °F 57.2 °F 77% 29.77 in 10.0 mi SW 5.8 mph - N/A   Mostly Cloudy
1:32 PM 66.2 °F 57.2 °F 73% 29.76 in 10.0 mi West 4.6 mph - N/A   Mostly Cloudy
1:52 PM 66.9 °F 57.9 °F 73% 29.74 in 10.0 mi NW 10.4 mph - N/A   Mostly Cloudy
3:52 PM 64.9 °F 55.0 °F 70% 29.73 in 10.0 mi NNW 6.9 mph - N/A   Overcast
4:52 PM 62.1 °F 57.9 °F 86% 29.74 in 6.0 mi South 3.5 mph - 0.05 in Rain Light Rain
5:52 PM 59.0 °F 59.0 °F 100% 29.74 in 4.0 mi SE 4.6 mph - 0.18 in Rain Rain
6:52 PM 60.1 °F 57.9 °F 93% 29.67 in 10.0 mi North 9.2 mph - 0.06 in   Mostly Cloudy
7:52 PM 61.0 °F 57.0 °F 87% 29.67 in 10.0 mi Calm Calm - N/A   Partly Cloudy
8:52 PM 60.1 °F 57.9 °F 93% 29.69 in 10.0 mi WNW 3.5 mph - N/A   Overcast
9:52 PM 59.0 °F 57.0 °F 93% 29.67 in 10.0 mi Calm Calm - N/A   Overcast
10:52 PM 57.9 °F 57.0 °F 97% 29.68 in 10.0 mi ESE 3.5 mph - N/A   Overcast
11:52 PM 57.0 °F 55.9 °F 96% 29.67 in 10.0 mi Calm Calm - N/A   Mostly Cloudy